TimeEDT,TemperatureF,Dew PointF,Humidity,Sea Level PressureIn,VisibilityMPH,Wind Direction,Wind SpeedMPH,Gust SpeedMPH,PrecipitationIn,Events,Conditions,WindDirDegrees,DateUTC
12:52 AM,57.0,55.0,93,30.20,10.0,Calm,Calm,-,N/A,,Clear,0,2013-08-17 04:52:00
1:14 AM,55.9,54.0,93,30.20,2.0,Calm,Calm,-,N/A,,Clear,0,2013-08-17 05:14:00
1:23 AM,55.9,54.0,93,30.20,7.0,Calm,Calm,-,N/A,,Clear,0,2013-08-17 05:23:00
1:34 AM,55.0,54.0,96,30.21,1.8,Calm,Calm,-,N/A,,Clear,0,2013-08-17 05:34:00
1:43 AM,55.0,54.0,96,30.21,1.0,Calm,Calm,-,N/A,,Clear,0,2013-08-17 05:43:00
1:52 AM,55.0,53.1,93,30.21,1.0,Calm,Calm,-,N/A,,Clear,0,2013-08-17 05:52:00
2:02 AM,55.0,53.1,93,30.21,0.5,Calm,Calm,-,N/A,Fog,Fog,0,2013-08-17 06:02:00
2:44 AM,54.0,53.1,97,30.21,0.2,Calm,Calm,-,N/A,Fog,Fog,0,2013-08-17 06:44:00
2:52 AM,53.1,52.0,96,30.21,0.2,Calm,Calm,-,N/A,Fog,Fog,0,2013-08-17 06:52:00
3:18 AM,53.1,51.1,93,30.21,0.2,Calm,Calm,-,N/A,Fog,Fog,0,2013-08-17 07:18:00
3:47 AM,51.8,51.8,100,30.21,1.0,Calm,Calm,-,N/A,,Clear,0,2013-08-17 07:47:00
3:52 AM,52.0,51.1,97,30.21,2.0,Calm,Calm,-,N/A,,Clear,0,2013-08-17 07:52:00
3:55 AM,52.0,51.1,97,30.21,1.2,Calm,Calm,-,N/A,,Clear,0,2013-08-17 07:55:00
4:03 AM,52.0,51.1,97,30.21,2.0,Calm,Calm,-,N/A,,Clear,0,2013-08-17 08:03:00
4:41 AM,52.0,50.0,93,30.21,9.0,Calm,Calm,-,N/A,,Clear,0,2013-08-17 08:41:00
4:52 AM,51.1,50.0,96,30.21,5.0,Calm,Calm,-,N/A,,Clear,0,2013-08-17 08:52:00
5:00 AM,51.1,50.0,96,30.21,1.8,Calm,Calm,-,N/A,,Clear,0,2013-08-17 09:00:00
5:08 AM,51.1,48.9,92,30.22,3.0,Calm,Calm,-,N/A,,Clear,0,2013-08-17 09:08:00
5:26 AM,51.1,48.9,92,30.22,1.8,Calm,Calm,-,N/A,,Clear,0,2013-08-17 09:26:00
5:31 AM,51.1,48.9,92,30.22,0.8,Calm,Calm,-,N/A,,Clear,0,2013-08-17 09:31:00
5:52 AM,50.0,48.9,96,30.23,0.2,Calm,Calm,-,N/A,Fog,Fog,0,2013-08-17 09:52:00
6:07 AM,50.0,48.9,96,30.23,1.5,Calm,Calm,-,N/A,,Clear,0,2013-08-17 10:07:00
6:18 AM,50.0,48.9,96,30.23,0.8,Calm,Calm,-,N/A,,Clear,0,2013-08-17 10:18:00
6:27 AM,51.1,50.0,96,30.23,2.0,Calm,Calm,-,N/A,,Clear,0,2013-08-17 10:27:00
6:34 AM,52.0,51.1,97,30.23,7.0,Calm,Calm,-,N/A,,Clear,0,2013-08-17 10:34:00
6:52 AM,55.0,54.0,96,30.24,10.0,Calm,Calm,-,N/A,,Clear,0,2013-08-17 10:52:00
7:52 AM,63.0,57.9,84,30.25,10.0,Calm,Calm,-,N/A,,Clear,0,2013-08-17 11:52:00
8:52 AM,70.0,57.9,65,30.25,10.0,Variable,3.5,-,N/A,,Clear,0,2013-08-17 12:52:00
9:52 AM,75.9,59.0,56,30.25,10.0,Calm,Calm,-,N/A,,Clear,0,2013-08-17 13:52:00
10:52 AM,78.1,60.1,54,30.26,10.0,NNE,4.6,-,N/A,,Clear,30,2013-08-17 14:52:00
11:52 AM,80.1,59.0,48,30.26,10.0,Variable,3.5,-,N/A,,Partly Cloudy,0,2013-08-17 15:52:00
12:52 PM,79.0,57.9,48,30.25,10.0,Variable,4.6,-,N/A,,Mostly Cloudy,0,2013-08-17 16:52:00
1:52 PM,81.0,59.0,47,30.25,10.0,Variable,6.9,-,N/A,,Clear,0,2013-08-17 17:52:00
2:52 PM,81.0,55.9,42,30.24,10.0,Variable,4.6,-,N/A,,Clear,0,2013-08-17 18:52:00
3:52 PM,80.1,55.9,43,30.23,10.0,ENE,4.6,-,N/A,,Clear,70,2013-08-17 19:52:00
4:52 PM,80.1,55.0,42,30.23,10.0,Calm,Calm,-,N/A,,Clear,0,2013-08-17 20:52:00
5:52 PM,78.1,57.0,48,30.24,10.0,ESE,4.6,-,N/A,,Clear,120,2013-08-17 21:52:00
6:52 PM,72.0,60.1,66,30.25,10.0,Calm,Calm,-,N/A,,Clear,0,2013-08-17 22:52:00
7:52 PM,64.9,60.1,84,30.25,10.0,Calm,Calm,-,N/A,,Clear,0,2013-08-17 23:52:00
8:52 PM,62.1,60.1,93,30.26,10.0,Calm,Calm,-,N/A,,Clear,0,2013-08-18 00:52:00
9:52 PM,61.0,59.0,93,30.27,8.0,Calm,Calm,-,N/A,,Clear,0,2013-08-18 01:52:00
10:52 PM,60.1,57.9,93,30.27,6.0,Calm,Calm,-,N/A,,Clear,0,2013-08-18 02:52:00
11:27 PM,59.0,57.0,93,30.28,1.8,Calm,Calm,-,N/A,,Clear,0,2013-08-18 03:27:00
11:36 PM,59.0,57.0,93,30.28,3.0,Calm,Calm,-,N/A,,Clear,0,2013-08-18 03:36:00
11:52 PM,59.0,57.0,93,30.27,4.0,Calm,Calm,-,N/A,,Clear,0,2013-08-18 03:52:00